Weather observations for the past three days for
Sault Ste Marie, Chippewa County International Airport
Imperial (Metric)
Date Time (edt) Wind (mph) Vis. (mi.) Weather Sky Cond. Temperature (ºF) Relative Humidity Wind Chill (°F) Heat Index (°F) Pressure Precipitation (in)
Air Dwpt 6 hour altimeter (in) sea level (mb) 1 hr 3 hr 6 hr
Max. Min.
20 16:56 N 10 10.00 Overcast BKN035 OVC110 75 61 62% 77 30.32 1026.7
20 15:56 NE 7 10.00 Fair CLR 75 61 62% 77 30.34 1027.1
20 14:56 N 10 10.00 Mostly Cloudy BKN029 BKN035 73.9 60.1 62% 30.35 1027.5
20 13:56 N 6 9.00 Mostly Cloudy BKN025 73.9 60.1 73.9 54 62% 30.36 1027.8
20 12:56 Calm 10.00 Fair CLR 71.1 60.1 68% 30.38 1028.5
20 11:56 NE 3 10.00 Fair CLR 66.9 57.9 73% 30.39 1028.9
20 10:56 N 5 10.00 Fair CLR 63 55.9 78% 30.39 1029.0
20 09:56 N 5 10.00 Fair CLR 61 55.9 84% 30.39 1029.0
20 08:56 NW 5 10.00 Fair CLR 55.9 54 93% 30.38 1028.9
20 07:56 N 6 10.00 A Few Clouds FEW004 54 53.1 57.9 54 97% 30.37 1028.6 0.06
20 06:56 NW 7 10.00 Fair CLR 54 52 93% 30.36 1028.3
20 05:56 NW 6 10.00 Partly Cloudy SCT120 54 52 93% 30.34 1027.5
20 04:56 NW 5 10.00 Mostly Cloudy BKN095 BKN110 55 52 90% 30.33 1027.1 0.01 0.06
20 03:56 W 3 10.00 Light Rain BKN050 OVC090 55 53.1 93% 30.34 1027.3 0.04
20 02:56 NW 5 10.00 Light Rain BKN042 OVC095 55.9 54 93% 30.34 1027.2 0.01
20 01:56 NW 6 10.00 Light Rain BKN042 OVC075 57.9 55.9 66 57.9 93% 30.32 1026.5 0.05 0.09
20 00:56 NW 3 10.00 Light Rain OVC042 59 57 93% 30.31 1026.3 0.02
19 23:56 NW 6 10.00 Light Rain FEW029 BKN039 OVC055 60.1 57 90% 30.3 1025.9 0.02
19 22:56 NW 9 10.00 Overcast OVC034 61 55 81% 30.3 1025.6
19 21:56 N 7 10.00 Overcast OVC032 62.1 57 84% 30.28 1025.2
19 20:56 N 10 10.00 Overcast OVC030 64 57.9 81% 30.25 1024.2
19 19:56 NW 10 10.00 Overcast OVC030 66 57.9 75.9 66 75% 30.24 1023.7
19 18:56 NW 12 10.00 Overcast OVC030 68 60.1 76% 30.24 1023.8
19 17:56 NW 7 10.00 Overcast OVC030 69.1 61 76% 30.23 1023.4
19 16:56 N 9 10.00 Overcast OVC030 70 61 73% 30.22 1022.8
19 15:56 NW 10 10.00 Overcast OVC028 71.1 61 71% 30.21 1022.6
19 14:56 N 10 10.00 Overcast OVC028 71.1 63 76% 30.19 1022.0
19 13:56 N 15 G 25 10.00 Overcast OVC100 77 64.9 82.9 77 66% 79 30.15 1020.5
19 12:56 SW 15 G 24 10.00 Fair CLR 81 66.9 62% 83 30.12 1019.1
19 11:56 W 17 G 28 10.00 A Few Clouds FEW028 81 66.9 62% 83 30.09 1018.2
19 10:56 SW 15 G 22 10.00 Mostly Cloudy FEW030 BKN038 81 66.9 62% 83 30.08 1017.8
19 09:56 SW 17 G 26 10.00 Mostly Cloudy BKN034 79 66 65% 81 30.05 1016.9
19 08:56 SW 13 G 21 10.00 Fair CLR 80.1 68 67% 83 30.04 1016.8
19 07:56 SW 10 G 17 10.00 Partly Cloudy SCT075 79 68 79 72 69% 81 30.03 1016.3
19 06:56 Vrbl 6 10.00 Fair CLR 75.9 68 77% 77 30.01 1015.6
19 05:56 SW 8 10.00 Mostly Cloudy BKN060 75.9 68 77% 77 29.99 1014.8
19 04:56 SW 8 10.00 A Few Clouds FEW075 77 68 74% 79 29.98 1014.4
19 03:56 Vrbl 7 G 17 10.00 Overcast OVC055 77 68 74% 79 29.97 1014.1
19 02:56 S 9 10.00 Fair CLR 73.9 66.9 79% 29.96 1013.9
19 01:56 S 9 10.00 Fair CLR 73 68 82.9 72 84% 29.97 1014.1
19 00:56 S 9 10.00 Fair CLR 75 68 79% 76 29.97 1014.3
18 23:56 S 8 10.00 Fair CLR 75.9 68 77% 77 29.97 1014.2
18 22:56 S 6 10.00 Fair CLR 72 68 87% 29.96 1013.8
18 21:56 S 5 10.00 Fair CLR 75.9 68 77% 77 29.95 1013.5
18 20:56 S 8 10.00 Fair CLR 80.1 69.1 69% 83 29.93 1013.0
18 19:56 S 7 10.00 Fair CLR 82.9 69.1 90 82.9 63% 87 29.93 1012.9
18 18:56 S 12 G 16 10.00 Fair CLR 84 68 59% 87 29.94 1013.3
18 17:56 SW 9 G 16 10.00 A Few Clouds FEW002 87.1 69.1 55% 91 29.94 1013.2
18 16:56 S 12 G 23 10.00 Fair CLR 89.1 68 50% 93 29.94 1013.4
18 15:56 S 18 G 23 10.00 Fair CLR 90 66.9 47% 93 29.95 1013.6
18 14:56 S 16 G 24 10.00 Partly Cloudy SCT048 89.1 66.9 48% 92 29.95 1013.7
18 13:56 S 12 G 20 10.00 Mostly Cloudy BKN041 88 69.1 88 68 54% 92 29.98 1014.4
18 12:56 SW 13 G 21 10.00 Fair CLR 86 68 55% 89 29.99 1014.8
18 11:56 SW 13 G 20 10.00 A Few Clouds FEW034 84 69.1 61% 88 29.98 1014.8
18 10:56 S 8 10.00 Fair CLR 82 70 67% 86 29.98 1014.8
18 09:56 S 8 10.00 Fair CLR 78.1 68 71% 80 29.98 1014.8
18 08:56 S 7 10.00 Fair CLR 73.9 66.9 79% 29.96 1014.0
18 07:56 SE 3 10.00 Fair CLR 68 66 68 61 93% 29.94 1013.6
18 06:56 SE 7 6.00 Fog/Mist CLR 64.9 64 97% 29.94 1013.4
18 05:56 SE 7 6.00 Fog/Mist BKN110 64 63 96% 29.92 1013.0
18 04:56 E 8 10.00 Fair CLR 64 63 96% 29.93 1013.5
18 03:56 E 6 10.00 A Few Clouds FEW110 62.1 62.1 100% 29.92 1013.1
18 02:56 N 9 10.00 Mostly Cloudy FEW070 SCT095 BKN110 62.1 61 96% 29.93 1013.3
18 01:56 E 7 10.00 Mostly Cloudy BKN060 64.9 63 69.1 64.9 93% 29.93 1013.0 0.12
18 00:56 Calm 10.00 Overcast OVC110 64.9 64 97% 29.94 1013.4
17 23:56 Calm 2.50 Thunderstorm Light Rain Fog/Mist OVC060 64.9 63 93% 29.94 1013.3 0.12
17 22:56 S 5 10.00 Fair CLR 66 62.1 87% 29.93 1013.1
17 21:56 SE 7 10.00 Fair CLR 64.9 62.1 90% 29.91 1012.6
17 20:56 SE 6 10.00 Fair CLR 69.1 62.1 78% 29.9 1012.3
17 19:56 SE 9 10.00 Fair CLR 71.1 62.1 82.9 59 73% 29.91 1012.3 0.02
17 18:56 SE 3 10.00 Fair CLR 70 61 73% 29.9 1012.2
17 17:56 E 9 10.00 Fair CLR 66 57.9 75% 29.9 1012.3
Date Time (edt) Wind (mph) Vis. (mi.) Weather Sky Cond. Air Dwpt Max. Min. Relative Humidity Wind Chill (°F) Heat Index (°F) altimeter (in) sea level (mb) 1 hr 3 hr 6 hr
6 hour
Temperature (ºF) Pressure Precipitation (in)